COSMOS 1371

Satellite information

Favourite Embed

Satellite Type and Status

PAYLOADIN ORBIT

Key statistics

Satellite COSMOS 1371 at a glance.

Uptime

15845

Days in orbit

Revolutions

≈ 14.3

Per day

Orbit

LEO

Low Earth Orbit

Inclination

74.0

Latest

Satellite identification and parameters

Extended collection of information and parameters for COSMOS 1371.

Object identification

Identified? True

Debris? False

Object name: COSMOS 1371

International designator: 1982-051A

Object number (NORAD): 13241

Object ID (CCSDS): 13241

Country: COMMONWEALTH OF INDEPENDENT STATES (CIS)

Current information (Y/N): Y

RCS size: LARGE

Orbital parameters

Period: 100.522 minutes

Inclination: 74.0435 deg

SMA: 7161.46 km

Apoapsis: 792.067 km

Periapsis: 774.584 km

RAAN: 329.7396 deg

Eccentricy: 0.00122062

Argument of periapsis: 135.7076 deg

Mean anomaly: 224.5054 deg

Mean motion: 14.32518947 rev/day

Mean motion (dot): 0.00000188 rev/day2

B* drag term: 0.000078766583 1/REarth

Two-line elements (TLE)

Creation date: Oct. 18, 2025, 2:17 a.m.

Reference frame: TEME

Reference center: EARTH

Epoch: Oct. 17, 2025, 7:43 p.m. UTC

TLE line 0: 0 COSMOS 1371

TLE line 1: 1 13241U 82051A 25290.82176028 .00000188 00000-0 78767-4 0 9995

TLE line 2: 2 13241 74.0435 329.7396 0012206 135.7076 224.5054 14.32518947264744

Live tracking on map

Real-time ground track for satellite COSMOS 1371.

In-orbit conjunctions

A list of the most updated potential collisions computed for object COSMOS 1371.

Target Orbit TCA Probability of collision Miss distance Type
NOAA 16 DEB SSO 2025-07-13 22:56:46 0.0008962312 197.0 (m) DEBRIS
IRIDIUM 33 LEO 2025-05-04 20:02:53 0.001110008 502.0 (m) PAYLOAD
FENGYUN 1C DEB SSO 2025-04-10 09:27:58 0.0002597255 403.0 (m) DEBRIS
NOAA 16 DEB SSO 2025-03-22 08:50:16 0.0001407152 839.0 (m) DEBRIS
CZ-6A DEB LEO 2025-02-13 03:17:55 0.0001611534 469.0 (m) DEBRIS

Associated space launch

Military communications satellite

COSMOS 1371 was lifted into orbit during the mission ‘Kosmos-3M | Strela-2M 28’, on board a Kosmos-3M space rocket.

The launch took place on June 1, 1982, 4:37 a.m. from 132/1 (132L).

For more information about the launch, click the button.

Launch to space Kosmos-3M | Strela-2M 28
Kosmos-3M | Strela-2M 28

Agency: N/A

Status: Launch Successful

Launch date: June 1, 1982, 4:37 a.m. UTC

Rocket: Kosmos-3M

Launch pad: 132/1 (132L)

Location: Plesetsk Cosmodrome, Russian Federation

...

Latest news about this satellite

There are no fresh news available about this satellite. Check back as we update our databases every day.


Newsletter sign-up

Weekly statistics, charts and insights to help you stay on top of the space industry.